Location: Dal�� Lhota
(48.7500°N, 14.0167°E)
Time: 03:53:15
(UTC+00:00)

S-56A Canister/Altair - Visible Passes

Search period start: 01 August 2021 00:00
Search period end: 11 August 2021 00:00
Orbit: 631 x 2501 km, 38.9° (Epoch: 31 July)

Date Brightness Start Highest point End Pass type
(mag) Time Alt. Az. Time Alt. Az. Time Alt. Az.
01 Aug 10.7 19:21:36 10° W 19:34:03 34° SW 19:44:24 10° SSE visible
01 Aug 11.1 21:33:37 10° WSW 21:36:40 11° WSW 21:39:34 10° SW visible
02 Aug 11.1 20:57:48 10° W 21:03:54 14° SW 21:09:25 10° SSW visible
03 Aug 11.1 20:23:03 10° W 20:31:03 17° SW 20:38:11 10° SSW visible
04 Aug 11.1 19:48:43 10° W 19:58:07 20° SW 20:06:30 10° S visible
05 Aug 11.1 19:14:39 10° W 19:25:07 24° SW 19:34:32 10° S visible
08 Aug 11.6 19:45:53 10° WSW 19:48:49 11° SW 19:51:41 10° SW visible
09 Aug 11.6 19:09:58 10° WSW 19:15:53 13° SW 19:21:39 10° SSW visible
